Wind_Speed
33 31 31 32 33 34 33 33 31 27 27 27 28 28 26 23 22 24 25 24 25 26 26 26 26 23 22 21 18 18 21 22 22 21 20 19 18 17 17 16 15 14 12
37 36 35 34 34 34 34 33 34 34 34 32 32 34 33 30 27 27 27 27 27 29 30 29 30 28 25 24 23 21 21 22 22 22 22 22 21 20 19 18 18 17 15
37 37 37 38 37 36 36 35 36 36 37 37 36 36 38 37 40 38 33 32 31 32 33 33 32 31 28 26 25 24 23 24 24 23 23 23 23 23 21 20 20 19 18
36 35 37 38 37 38 37 38 39 38 40 41 41 42 42 42 43 44 38 33 32 34 35 35 36 35 32 29 26 26 26 26 25 25 24 25 24 24 23 22 21 20 17
37 37 38 38 39 40 42 43 42 41 40 43 45 44 43 44 45 44 40 38 37 34 36 38 39 39 36 34 30 29 28 27 26 26 26 26 26 25 26 25 20 18 17
41 40 41 43 43 42 43 44 43 42 43 45 47 47 46 44 43 40 36 34 33 33 36 39 41 40 39 37 35 31 29 27 27 26 27 27 28 27 27 27 23 21 21
42 41 40 40 41 41 41 42 43 43 44 45 46 48 46 42 38 37 37 32 33 35 37 38 40 40 41 39 37 32 31 27 26 26 27 27 29 31 30 29 27 25 25
40 40 41 41 42 41 40 41 42 42 42 42 43 44 43 40 37 39 41 37 35 36 37 36 38 38 39 36 36 34 32 28 27 26 26 29 30 30 31 31 30 28 28
35 36 38 40 41 41 41 42 42 43 43 42 43 45 43 39 39 39 40 37 37 37 35 33 38 39 35 35 35 31 30 28 28 30 31 31 30 30 31 31 31 30 30
37 36 37 39 40 42 44 44 44 45 45 44 45 45 45 42 40 37 35 38 38 30 28 28 34 36 33 34 33 31 30 29 30 33 32 29 28 28 28 31 32 31 29
39 39 40 41 43 45 45 45 46 47 47 46 46 44 42 41 37 34 35 37 33 28 25 27 33 34 33 33 32 32 32 33 35 32 30 28 27 25 25 27 30 30 29
40 40 40 41 43 44 44 45 47 48 47 46 47 47 44 38 34 33 32 32 25 26 27 33 32 34 34 33 35 35 35 38 34 33 31 28 26 23 23 25 24 24 27
41 40 41 42 42 43 43 42 43 44 44 46 47 45 42 40 35 30 30 30 30 29 28 27 29 35 35 37 38 36 36 34 31 29 28 28 27 25 24 25 24 25 26
43 43 42 43 42 42 41 41 41 42 44 48 48 45 40 37 31 27 28 30 34 35 30 22 22 29 32 35 35 35 35 32 29 28 28 27 27 26 25 26 27 28 29
45 45 44 42 42 41 40 41 39 35 36 39 42 40 34 29 23 22 25 28 30 34 35 32 31 32 33 29 26 26 28 28 27 27 27 26 26 26 26 27 28 29 30
41 42 42 42 42 41 40 37 31 29 29 28 26 26 28 25 28 26 25 26 29 31 36 37 30 25 22 22 25 25 26 27 28 28 28 27 27 26 27 27 28 30 31
39 40 41 42 42 38 32 27 25 24 22 20 20 21 22 22 27 30 30 32 34 32 31 24 15 15 18 21 25 28 28 27 28 29 30 31 31 31 32 32 33 33 33
34 37 37 37 35 32 30 26 19 20 21 20 23 24 25 27 31 32 30 28 26 23 16 11 12 16 19 20 21 24 25 26 27 28 30 30 31 32 32 33 35 35 36
30 32 33 32 31 27 28 23 21 21 20 18 19 16 16 19 27 26 24 20 17 13 11 16 17 18 21 24 25 25 24 24 25 28 30 30 31 32 33 35 36 38 39
24 24 25 25 22 18 20 22 23 22 21 23 22 17 15 19 18 18 17 15 14 16 19 21 22 23 24 25 25 25 26 26 27 29 31 32 34 35 36 37 38 37 39
18 18 20 17 17 18 16 16 21 23 23 22 18 15 14 15 12 11 14 15 16 18 21 23 23 23 23 24 25 26 28 29 31 33 35 36 38 38 38 38 38 38 39
16 13 15 12 11 12 14 15 17 16 18 18 15 14 14 14 12 12 13 15 16 17 18 20 22 21 22 24 26 28 29 30 32 34 36 38 41 42 43 44 44 44 43
14 11 14 13 12 10 7 8 11 16 17 17 16 16 15 13 14 13 13 14 15 15 15 17 19 20 21 23 24 24 25 27 28 30 31 34 36 38 39 42 43 45 46
18 13 13 14 15 13 10 10 12 14 17 18 18 15 15 15 16 15 14 15 14 12 12 13 15 15 15 17 19 24 28 31 34 36 37 38 41 42 44 44 43 42 44
20 15 16 16 17 17 14 12 13 15 15 16 17 17 15 14 13 13 13 12 11 11 10 9 11 14 17 20 23 26 30 33 35 37 39 41 41 42 43 43 42 42 42
21 18 18 19 21 23 21 15 11 10 10 12 12 11 10 10 10 10 10 10 10 9 9 11 13 17 20 24 27 31 34 35 36 36 37 39 37 34 35 36 34 33 35
Wind_Direction
288 285 280 281 283 285 287 288 289 285 283 283 286 288 287 292 294 294 288 283 274 267 267 271 273 278 286 290 288 280 272 266 264 266 268 267 267 267 266 264 265 264 265
285 283 280 278 276 278 281 284 285 283 279 279 281 282 283 282 287 283 273 269 270 268 261 258 262 269 276 284 288 285 280 273 266 266 266 268 268 267 269 267 261 260 260
278 278 278 277 278 277 275 275 276 277 276 276 279 284 287 286 290 286 273 261 262 268 265 258 255 260 266 273 282 285 283 280 275 269 265 263 265 266 268 270 263 258 259
274 274 276 272 274 277 277 276 276 274 275 277 281 286 286 284 285 285 278 271 267 269 269 264 256 255 260 267 274 279 282 281 278 274 271 267 266 266 267 266 267 263 259
275 274 272 271 271 272 274 275 276 277 277 280 282 283 284 284 285 285 284 277 272 266 263 260 251 249 254 259 264 271 277 281 278 274 270 266 263 263 263 262 268 268 266
278 275 270 271 272 273 277 278 278 277 277 279 282 284 285 284 284 282 277 272 264 262 264 259 248 244 247 253 258 266 274 274 279 276 274 269 266 262 261 263 265 264 264
278 277 275 271 271 275 279 278 278 280 281 282 284 284 282 282 284 279 278 278 274 272 268 260 248 244 244 249 255 263 266 270 275 276 276 273 271 267 261 261 261 261 264
279 276 274 273 274 277 278 279 280 282 284 285 285 284 285 282 282 281 281 282 277 274 272 261 248 245 245 246 254 262 265 269 272 273 272 272 271 268 266 263 264 264 264
282 279 276 276 278 279 279 279 280 282 284 283 286 286 284 284 283 278 278 277 274 273 269 264 253 247 243 246 250 256 261 268 271 272 272 270 267 266 265 263 259 259 259
286 284 281 281 284 286 287 285 284 283 283 283 283 283 282 283 281 272 270 277 271 262 256 259 257 244 241 242 245 248 256 269 279 279 273 267 264 263 266 267 261 257 253
288 287 287 287 287 287 287 287 288 288 286 282 282 282 279 278 274 265 269 276 262 249 252 252 245 238 240 243 246 247 255 271 282 276 269 265 263 260 265 271 263 257 253
286 286 286 287 287 285 284 282 284 285 285 284 283 282 283 276 268 266 265 269 262 243 240 245 241 238 239 246 249 249 259 273 273 268 264 261 259 255 257 265 261 254 254
286 285 286 289 291 290 287 284 281 282 282 281 282 282 281 280 271 262 259 265 264 253 244 245 234 239 246 251 254 258 266 269 264 264 261 258 255 254 255 262 260 259 258
287 288 288 289 289 289 286 283 280 279 279 276 274 275 277 273 267 258 262 263 265 256 247 243 234 246 254 257 260 262 263 260 258 257 255 253 253 256 255 259 263 263 265
286 286 288 288 287 287 285 285 281 274 273 273 270 265 264 263 261 256 261 264 263 250 253 258 254 257 254 254 258 259 260 258 259 257 256 254 251 253 254 254 256 259 262
290 287 286 285 285 286 284 281 273 270 274 273 265 253 252 246 252 253 255 258 253 257 267 270 269 265 250 245 248 252 258 263 261 259 258 255 253 252 251 251 255 258 259
289 285 284 284 287 285 279 275 273 265 262 255 250 239 233 231 241 248 261 259 260 265 270 267 254 241 251 260 264 261 260 262 262 262 260 258 257 256 253 253 255 256 255
290 289 289 289 289 282 268 268 244 248 237 228 229 216 212 218 237 246 244 241 248 255 257 247 239 244 251 262 268 268 264 259 259 260 260 259 259 260 259 259 260 260 256
293 293 293 295 294 286 266 254 228 233 216 201 200 211 218 219 225 239 245 246 248 243 245 251 260 268 267 266 267 270 271 269 264 262 260 259 258 258 258 259 260 260 259
290 286 290 290 285 272 246 222 214 207 186 185 193 212 238 252 253 258 252 241 239 245 254 261 264 266 266 266 267 268 269 269 269 268 266 264 264 265 264 263 262 264 265
298 289 291 287 271 251 239 213 208 216 222 217 218 225 242 249 247 253 253 250 250 255 261 267 270 270 270 270 271 270 269 268 267 266 265 264 266 267 269 270 269 268 267
306 300 294 293 289 272 242 235 224 236 239 232 228 233 235 235 238 238 244 254 258 261 267 270 270 273 275 275 275 276 275 275 276 275 274 274 274 273 272 270 269 267 266
297 305 292 277 273 272 228 222 235 237 236 233 233 233 239 244 244 241 243 251 257 262 267 274 277 278 279 279 280 282 284 284 283 283 282 278 277 275 273 272 271 269 269
289 295 291 282 273 269 261 254 245 238 235 233 233 233 234 236 240 244 248 249 252 257 261 267 271 275 276 277 282 285 288 289 289 288 285 282 278 274 271 269 268 267 266
284 291 290 291 280 273 269 254 251 247 246 240 235 235 233 234 235 234 234 239 248 254 255 267 284 292 296 299 300 299 298 296 292 289 286 283 279 276 272 268 265 265 264
276 278 284 289 285 281 276 263 255 253 244 243 241 230 218 211 217 232 237 237 239 246 263 286 300 308 312 313 313 311 308 305 301 298 293 289 286 281 276 272 268 264 263
Height
5891 5889 5887 5885 5882 5881 5880 5878 5878 5878 5877 5875 5873 5873 5871 5870 5872 5872 5870 5871 5872 5872 5872 5874 5874 5874 5873 5873 5872 5871 5871 5869 5869 5869 5869 5869 5869 5870 5869 5870 5870 5870 5870
5881 5880 5878 5877 5876 5875 5873 5871 5870 5869 5868 5867 5867 5866 5865 5865 5865 5866 5865 5864 5865 5864 5864 5866 5868 5868 5868 5867 5867 5867 5867 5866 5865 5865 5865 5865 5865 5865 5866 5866 5865 5866 5866
5873 5872 5870 5868 5867 5865 5864 5862 5861 5860 5859 5859 5859 5858 5857 5857 5858 5856 5857 5857 5856 5856 5856 5859 5861 5861 5861 5860 5861 5862 5862 5862 5861 5860 5860 5860 5860 5861 5861 5862 5861 5861 5862
5864 5863 5862 5859 5857 5855 5854 5853 5851 5851 5850 5849 5849 5849 5848 5847 5848 5846 5846 5848 5848 5847 5847 5849 5852 5852 5854 5854 5854 5855 5855 5855 5855 5855 5855 5856 5856 5856 5856 5856 5857 5859 5859
5854 5853 5852 5848 5846 5845 5844 5843 5841 5841 5841 5840 5839 5839 5837 5836 5835 5837 5838 5838 5838 5838 5838 5839 5841 5843 5844 5846 5847 5847 5848 5848 5848 5848 5848 5848 5849 5850 5851 5851 5853 5855 5856
5841 5841 5841 5839 5837 5835 5833 5832 5831 5831 5830 5829 5828 5828 5827 5827 5826 5827 5826 5826 5827 5827 5827 5828 5830 5833 5835 5837 5839 5839 5841 5842 5842 5842 5842 5842 5844 5844 5845 5848 5850 5850 5850
5831 5829 5829 5828 5828 5826 5825 5823 5821 5821 5820 5818 5817 5816 5816 5816 5816 5817 5816 5816 5817 5817 5816 5817 5818 5822 5825 5828 5829 5830 5832 5834 5835 5836 5836 5836 5837 5839 5839 5842 5843 5843 5844
5821 5820 5818 5817 5817 5816 5815 5814 5812 5811 5810 5809 5806 5804 5805 5808 5807 5806 5805 5805 5806 5806 5805 5806 5808 5812 5815 5819 5819 5821 5824 5826 5827 5829 5830 5829 5831 5832 5833 5835 5837 5838 5838
5812 5810 5809 5807 5807 5806 5806 5805 5804 5802 5801 5800 5797 5795 5794 5796 5796 5797 5796 5795 5795 5796 5796 5798 5800 5803 5806 5809 5811 5813 5816 5818 5819 5821 5823 5822 5822 5824 5825 5828 5829 5830 5832
5801 5799 5799 5798 5796 5795 5794 5793 5791 5790 5790 5789 5788 5786 5785 5785 5785 5786 5787 5787 5786 5788 5788 5788 5790 5795 5797 5799 5802 5805 5807 5809 5810 5813 5815 5815 5813 5814 5816 5819 5821 5822 5823
5792 5790 5789 5787 5785 5784 5782 5781 5779 5778 5778 5777 5777 5777 5775 5774 5775 5776 5778 5778 5778 5779 5780 5781 5782 5786 5789 5793 5796 5799 5800 5801 5800 5803 5806 5808 5807 5807 5808 5811 5812 5813 5815
5784 5781 5779 5777 5774 5772 5771 5769 5767 5766 5765 5765 5765 5765 5765 5764 5765 5766 5768 5769 5769 5771 5773 5773 5775 5778 5783 5786 5788 5790 5791 5792 5792 5795 5797 5799 5800 5799 5802 5804 5804 5806 5808
5773 5770 5767 5764 5762 5760 5758 5757 5755 5754 5754 5754 5753 5753 5753 5753 5753 5756 5758 5760 5762 5764 5764 5763 5766 5771 5774 5776 5779 5781 5783 5783 5784 5786 5788 5790 5792 5792 5794 5797 5798 5799 5800
5761 5758 5755 5752 5750 5748 5746 5744 5743 5742 5741 5740 5740 5741 5742 5743 5744 5747 5749 5751 5753 5756 5756 5758 5759 5761 5765 5766 5769 5772 5774 5775 5776 5778 5780 5782 5784 5784 5785 5788 5791 5792 5792
5749 5746 5743 5740 5738 5737 5736 5733 5732 5730 5729 5728 5728 5730 5733 5736 5739 5740 5741 5742 5747 5749 5750 5751 5752 5753 5755 5757 5760 5762 5764 5765 5767 5769 5771 5773 5775 5776 5777 5779 5782 5783 5783
5736 5733 5731 5729 5727 5725 5724 5721 5720 5719 5719 5717 5718 5721 5725 5729 5730 5732 5734 5736 5738 5741 5742 5744 5744 5746 5748 5749 5751 5753 5755 5758 5760 5762 5763 5765 5766 5768 5769 5769 5771 5772 5773
5724 5722 5720 5716 5714 5713 5711 5709 5709 5709 5709 5710 5713 5716 5719 5722 5723 5724 5728 5731 5731 5733 5735 5736 5737 5739 5740 5742 5745 5747 5748 5749 5750 5752 5754 5757 5758 5758 5759 5760 5762 5763 5763
5715 5711 5708 5705 5703 5703 5702 5701 5701 5704 5706 5707 5711 5712 5713 5715 5719 5720 5721 5723 5724 5725 5728 5730 5732 5733 5734 5735 5738 5739 5739 5739 5741 5742 5744 5746 5747 5747 5748 5750 5751 5751 5750
5708 5704 5699 5696 5694 5694 5694 5695 5697 5699 5701 5703 5705 5707 5708 5711 5713 5715 5717 5718 5719 5722 5723 5725 5726 5728 5729 5730 5732 5732 5731 5732 5733 5733 5735 5736 5737 5738 5738 5738 5738 5737 5736
5701 5698 5694 5690 5688 5688 5688 5691 5693 5695 5695 5698 5700 5702 5705 5708 5709 5711 5712 5713 5716 5718 5718 5719 5720 5721 5722 5723 5724 5724 5724 5725 5725 5726 5726 5726 5726 5726 5726 5725 5724 5722 5722
5695 5693 5690 5686 5684 5685 5686 5687 5687 5689 5692 5694 5695 5698 5702 5704 5704 5705 5708 5710 5711 5712 5714 5715 5715 5717 5717 5718 5718 5719 5718 5718 5717 5717 5716 5715 5715 5714 5713 5712 5710 5708 5709
5690 5689 5687 5685 5682 5682 5682 5683 5685 5686 5688 5689 5692 5695 5698 5699 5699 5700 5703 5706 5709 5709 5709 5710 5711 5711 5711 5712 5712 5711 5710 5709 5707 5706 5704 5703 5703 5702 5701 5700 5699 5697 5696
5687 5686 5684 5684 5682 5681 5679 5680 5681 5682 5684 5686 5688 5691 5692 5693 5696 5698 5701 5703 5704 5704 5704 5706 5707 5707 5706 5705 5704 5703 5702 5700 5697 5696 5694 5693 5692 5691 5689 5687 5685 5683 5682
5682 5681 5680 5680 5680 5680 5679 5679 5679 5680 5681 5682 5684 5685 5687 5691 5695 5696 5698 5699 5700 5701 5701 5701 5702 5702 5702 5701 5699 5697 5694 5692 5689 5687 5684 5681 5679 5677 5674 5673 5672 5670 5669
5677 5674 5674 5674 5676 5677 5676 5677 5676 5677 5678 5679 5681 5683 5684 5687 5690 5692 5694 5695 5696 5697 5698 5697 5697 5696 5695 5693 5691 5689 5685 5682 5678 5674 5670 5667 5664 5661 5658 5657 5656 5656 5656
5671 5669 5668 5668 5669 5670 5670 5671 5672 5672 5674 5676 5678 5680 5682 5684 5687 5688 5690 5691 5692 5693 5693 5693 5692 5691 5688 5686 5682 5678 5674 5670 5665 5661 5657 5653 5649 5647 5644 5643 5643 5642 5641